sat.trackr.live / text

‹ back to catalog

UNKNOWN

NORAD 85217

UNKNOWN UNKNOWN UNKNOWN

§ Identity

Operator
Country
Launch date
Launch site
Launch vehicle
Mass (kg)
RCS (m²)

External: N2YO · Heavens-Above

§ Orbital elements

Epoch: 2026-05-23T04:40:42.554208Z

Period
100.14 min
Inclination
98.0235°
Eccentricity
0.0205420
Mean motion
14.38015101 rev/d
Perigee alt
618.3 km
Apogee alt
911.8 km
Semi-major
7,143.2 km
B*
2.3264e-4
RAAN
232.0511°
Arg perigee
0.5131°
Mean anomaly
359.6231°
Rev number
65,105

§ Raw data

UNKNOWN1 85217U          26143.19493697  .00000851  00000+0  23264-3 0  99902 85217  98.0235 232.0511 0205420   0.5131 359.6231 14.38015101651059

JSON: /api/v1/satellites/85217 · /tle

For live sub-satellite position, see the globe view (requires WebGL).

§ Visibility from observer

Set your observer location to see the next 7 days of passes ≥ 10°. The values pass through the URL so the page stays shareable.

No JS? Fill the form by hand. The geolocation button needs JavaScript.